STARLINK-31969 (59889 NORAD) Tracking and Keplerian Element Data

This shows tracking and keplerian element data for the satellite.

Feedback or suggestion? Click here.




ElementValue
Catalog59889
NameSTARLINK-31969
Epoch Orbit290
Epoch Day160.16667824
Epoch Year2024
RAAN174.3878
Inclination43.0038
Eccentricity0.0001148
Argument of Perigee268.2591
Mean Anonmoly314.5356
Mean Motion15.79975584
Decay Rate-0.0098298
L11 59889U 24100E 24160.16667824 -.00982980 00000+0 -57495-2 0 9998
L22 59889 43.0038 174.3878 0001148 268.2591 314.5356 15.79975584 2902



Live tracking and technical data element details for STARLINK-31969 (NORAD 59889). STARLINK-31969 can be tracked NOW for your location showing map with azimuth and elevation plus other details from your city location.







IsCatalogInMostPopularTable: catalog: 59889, numindb: 6
Update: records affected: 1



GetName: 59889 STARLINK-31969

Hit Count: updated at: Tue, 16 Jul 2024 02:44:18 GMT